| time (UTC) | temp C | wind direction | speed KPH | gust KPH | rain 1hr cm | rain 24hr cm | rain mn cm | humidity % | barometer mb |
| 20260506201753 | 6 | 231 | 1.6 | 1.6 | 0.13 | 1.19 | 1.19 | 99 | 986.1 |
| 20260506201250 | 6 | 276 | 1.6 | 1.6 | 0.13 | 1.19 | 1.19 | 99 | 986.1 |
| 20260506200747 | 6 | 308 | 4.8 | 4.8 | 0.00 | 1.17 | 1.17 | 99 | 986.1 |
| 20260506200243 | 6 | 277 | 0.0 | 0.0 | 0.00 | 1.17 | 1.17 | 99 | 986.2 |
| 20260506195739 | 6 | 269 | 1.6 | 1.6 | 0.00 | 1.17 | 1.17 | 99 | 986.0 |
| 20260506195236 | 6 | 269 | 0.0 | 1.6 | 0.18 | 1.17 | 1.17 | 99 | 986.0 |
| 20260506194733 | 7 | 300 | 0.0 | 1.6 | 0.18 | 1.17 | 1.17 | 99 | 985.9 |
| 20260506194230 | 6 | 280 | 1.6 | 1.6 | 0.00 | 1.14 | 1.14 | 99 | 986.2 |
| 20260506193728 | 7 | 274 | 3.2 | 3.2 | 0.18 | 1.14 | 1.14 | 99 | 986.0 |
| 20260506193224 | 7 | 277 | 1.6 | 3.2 | 0.18 | 1.14 | 1.14 | 99 | 986.0 |
| 20260506192721 | 7 | 281 | 0.0 | 0.0 | 0.13 | 1.12 | 1.12 | 99 | 986.0 |
| 20260506192218 | 7 | 272 | 1.6 | 1.6 | 0.13 | 1.12 | 1.12 | 99 | 985.8 |
| 20260506191714 | 7 | 267 | 1.6 | 3.2 | 0.00 | 1.09 | 1.09 | 99 | 985.8 |
| 20260506191210 | 7 | 282 | 3.2 | 3.2 | 0.00 | 1.09 | 1.09 | 99 | 985.6 |
| 20260506190708 | 7 | 279 | 0.0 | 0.0 | 0.00 | 1.09 | 1.09 | 99 | 985.5 |
| 20260506190204 | 7 | 298 | 1.6 | 1.6 | 0.00 | 1.09 | 1.09 | 99 | 985.3 |
| 20260506185702 | 7 | 273 | 1.6 | 1.6 | 0.18 | 1.09 | 1.09 | 99 | 985.6 |
| 20260506185158 | 7 | 237 | 1.6 | 3.2 | 0.18 | 1.09 | 1.09 | 99 | 985.3 |
| 20260506184656 | 7 | 271 | 1.6 | 1.6 | 0.00 | 1.07 | 1.07 | 99 | 985.3 |
| 20260506184153 | 7 | 311 | 0.0 | 1.6 | 0.00 | 1.07 | 1.07 | 99 | 985.3 |
| 20260506183649 | 7 | 0 | 1.6 | 3.2 | 0.00 | 1.07 | 1.07 | 99 | 985.0 |
| 20260506183145 | 7 | 285 | 1.6 | 1.6 | 0.00 | 1.07 | 1.07 | 99 | 985.1 |
| 20260506182643 | 7 | 295 | 0.0 | 0.0 | 0.00 | 1.07 | 1.07 | 99 | 985.1 |
| 20260506182139 | 7 | 289 | 0.0 | 1.6 | 0.00 | 1.07 | 1.07 | 99 | 985.1 |
| 20260506181638 | 7 | 276 | 1.6 | 1.6 | 0.13 | 1.07 | 1.07 | 99 | 985.1 |
| 20260506181134 | 7 | 275 | 0.0 | 0.0 | 0.13 | 1.07 | 1.07 | 99 | 985.0 |
| 20260506180631 | 7 | 276 | 1.6 | 1.6 | 0.00 | 1.04 | 1.04 | 99 | 985.3 |
| 20260506180128 | 7 | 271 | 1.6 | 1.6 | 0.00 | 1.04 | 1.04 | 99 | 985.1 |
| 20260506175624 | 7 | 305 | 3.2 | 3.2 | 0.00 | 1.04 | 1.04 | 99 | 985.1 |
| 20260506175120 | 7 | 352 | 3.2 | 3.2 | 0.00 | 1.04 | 1.04 | 99 | 985.3 |
| 20260506174619 | 7 | 272 | 1.6 | 1.6 | 0.00 | 1.04 | 1.04 | 99 | 985.1 |
| 20260506174115 | 7 | 319 | 1.6 | 1.6 | 0.00 | 1.04 | 1.04 | 99 | 984.9 |
| 20260506173613 | 7 | 343 | 3.2 | 3.2 | 0.18 | 1.04 | 1.04 | 99 | 984.9 |
| 20260506173110 | 7 | 269 | 1.6 | 1.6 | 0.18 | 1.04 | 1.04 | 99 | 985.1 |
| 20260506172607 | 7 | 273 | 0.0 | 0.0 | 0.00 | 1.02 | 1.02 | 99 | 985.0 |
| 20260506172103 | 7 | 280 | 0.0 | 1.6 | 0.00 | 1.02 | 1.02 | 99 | 984.8 |
| 20260506171601 | 7 | 282 | 0.0 | 0.0 | 0.13 | 1.02 | 1.02 | 99 | 985.0 |
| 20260506171058 | 7 | 280 | 1.6 | 1.6 | 0.13 | 1.02 | 1.02 | 99 | 985.3 |
| 20260506170555 | 7 | 10 | 1.6 | 3.2 | 0.18 | 0.99 | 0.99 | 99 | 985.3 |
| 20260506170053 | 7 | 326 | 3.2 | 3.2 | 0.18 | 0.99 | 0.99 | 99 | 985.0 |
| 20260506165551 | 8 | 286 | 3.2 | 3.2 | 0.00 | 0.97 | 0.97 | 99 | 985.0 |
| 20260506165047 | 8 | 269 | 1.6 | 3.2 | 0.13 | 0.97 | 0.97 | 99 | 984.8 |
| 20260506164544 | 9 | 290 | 0.0 | 0.0 | 0.13 | 0.97 | 0.97 | 98 | 984.8 |
| 20260506164042 | 12 | 334 | 1.6 | 3.2 | 0.00 | 0.94 | 0.94 | 99 | 984.9 |
| 20260506163537 | 12 | 317 | 1.6 | 1.6 | 0.00 | 0.94 | 0.94 | 99 | 984.7 |
| 20260506163033 | 12 | 310 | 1.6 | 3.2 | 0.00 | 0.94 | 0.94 | 98 | 984.6 |
| 20260506162530 | 12 | 268 | 1.6 | 1.6 | 0.00 | 0.94 | 0.94 | 98 | 984.6 |
| 20260506162027 | 12 | 295 | 1.6 | 1.6 | 0.00 | 0.94 | 0.94 | 98 | 984.5 |
| 20260506161525 | 12 | 343 | 1.6 | 3.2 | 0.00 | 0.94 | 0.94 | 99 | 984.4 |
| 20260506161021 | 12 | 264 | 0.0 | 1.6 | 0.00 | 0.94 | 0.94 | 99 | 984.6 |
| 20260506160519 | 12 | 268 | 1.6 | 1.6 | 0.18 | 0.94 | 0.94 | 99 | 984.6 |
| 20260506160016 | 12 | 275 | 0.0 | 1.6 | 0.18 | 0.94 | 0.94 | 99 | 984.8 |
| 20260506155515 | 12 | 259 | 0.0 | 1.6 | 0.00 | 0.91 | 0.91 | 99 | 984.8 |
| 20260506153646 | 12 | 87 | 3.2 | 4.8 | 0.18 | 0.89 | 0.89 | 99 | 984.9 |
| 20260506153143 | 12 | 330 | 3.2 | 3.2 | 0.13 | 0.86 | 0.86 | 99 | 984.9 |
| 20260506152640 | 12 | 264 | 0.0 | 1.6 | 0.30 | 0.86 | 0.86 | 99 | 984.8 |
| 20260506152137 | 12 | 300 | 1.6 | 3.2 | 0.36 | 0.84 | 0.84 | 99 | 984.9 |
| 20260506151636 | 12 | 299 | 0.0 | 1.6 | 0.18 | 0.81 | 0.81 | 99 | 984.8 |
| 20260506151132 | 12 | 101 | 3.2 | 4.8 | 0.00 | 0.79 | 0.79 | 99 | 984.9 |
| 20260506150629 | 12 | 266 | 0.0 | 0.0 | 0.13 | 0.79 | 0.79 | 99 | 984.8 |
| 20260506150126 | 12 | 303 | 1.6 | 3.2 | 0.13 | 0.79 | 0.79 | 99 | 984.7 |
| 20260506145623 | 12 | 287 | 1.6 | 1.6 | 0.13 | 0.79 | 0.79 | 99 | 984.6 |
| 20260506145120 | 12 | 300 | 3.2 | 4.8 | 0.00 | 0.76 | 0.76 | 99 | 984.7 |
| 20260506144617 | 12 | 322 | 3.2 | 3.2 | 0.00 | 0.76 | 0.76 | 99 | 984.8 |
| 20260506144114 | 12 | 269 | 1.6 | 1.6 | 0.00 | 0.76 | 0.76 | 99 | 984.5 |
| 20260506143612 | 11 | 300 | 1.6 | 1.6 | 0.00 | 0.76 | 0.76 | 99 | 984.6 |
| 20260506143110 | 11 | 263 | 1.6 | 3.2 | 0.00 | 0.76 | 0.76 | 99 | 984.7 |
| 20260506142608 | 11 | 75 | 1.6 | 1.6 | 0.18 | 0.76 | 0.76 | 99 | 984.7 |
| 20260506142106 | 11 | 270 | 3.2 | 4.8 | 0.18 | 0.76 | 0.76 | 99 | 984.6 |
| 20260506141602 | 11 | 92 | 4.8 | 6.4 | 0.00 | 0.74 | 0.74 | 99 | 984.6 |
| 20260506141101 | 11 | 263 | 3.2 | 3.2 | 0.00 | 0.74 | 0.74 | 99 | 985.0 |
| 20260506140558 | 11 | 279 | 0.0 | 0.0 | 0.13 | 0.74 | 0.74 | 99 | 984.9 |
| 20260506140055 | 11 | 254 | 3.2 | 4.8 | 0.13 | 0.74 | 0.74 | 99 | 985.3 |
| 20260506135552 | 11 | 271 | 0.0 | 0.0 | 0.18 | 0.71 | 0.71 | 99 | 985.0 |
| 20260506135048 | 10 | 286 | 4.8 | 4.8 | 0.30 | 0.71 | 0.71 | 99 | 985.3 |
| 20260506134545 | 10 | 294 | 1.6 | 1.6 | 0.30 | 0.69 | 0.69 | 99 | 985.4 |
| 20260506134041 | 10 | 303 | 3.2 | 4.8 | 0.18 | 0.66 | 0.66 | 99 | 985.1 |
| 20260506133538 | 10 | 261 | 1.6 | 1.6 | 0.13 | 0.64 | 0.64 | 99 | 985.1 |
| 20260506133035 | 10 | 12 | 3.2 | 3.2 | 0.43 | 0.64 | 0.64 | 99 | 985.5 |
| 20260506132532 | 10 | 334 | 1.6 | 1.6 | 0.61 | 0.61 | 0.61 | 99 | 985.6 |
| 20260506132030 | 10 | 294 | 0.0 | 0.0 | 0.66 | 0.56 | 0.56 | 99 | 986.0 |
| 20260506131526 | 10 | 286 | 0.0 | 0.0 | 0.66 | 0.51 | 0.51 | 99 | 985.8 |
| 20260506131023 | 10 | 279 | 0.0 | 0.0 | 0.43 | 0.46 | 0.46 | 99 | 985.7 |
| 20260506130520 | 10 | 282 | 0.0 | 1.6 | 0.43 | 0.41 | 0.41 | 99 | 985.7 |
| 20260506130017 | 9 | 275 | 3.2 | 4.8 | 0.30 | 0.38 | 0.38 | 99 | 985.4 |
| 20260506125515 | 9 | 294 | 0.0 | 0.0 | 0.30 | 0.36 | 0.36 | 99 | 985.4 |
| 20260506125013 | 8 | 317 | 0.0 | 0.0 | 0.30 | 0.33 | 0.33 | 99 | 985.3 |
| 20260506124511 | 8 | 317 | 0.0 | 0.0 | 0.13 | 0.30 | 0.30 | 99 | 985.0 |
| 20260506124008 | 8 | 275 | 0.0 | 0.0 | 0.00 | 0.28 | 0.28 | 99 | 985.3 |
| 20260506123506 | 8 | 297 | 0.0 | 0.0 | 0.00 | 0.28 | 0.28 | 99 | 984.9 |
| 20260506123004 | 8 | 295 | 0.0 | 0.0 | 0.18 | 0.28 | 0.28 | 99 | 985.3 |
| 20260506122500 | 8 | 318 | 0.0 | 1.6 | 0.18 | 0.28 | 0.28 | 99 | 985.3 |
| 20260506121959 | 8 | 317 | 1.6 | 1.6 | 0.00 | 0.25 | 0.25 | 99 | 985.3 |
| 20260506121455 | 8 | 315 | 0.0 | 1.6 | 0.00 | 0.25 | 0.25 | 99 | 985.3 |
| 20260506120952 | 7 | 316 | 0.0 | 1.6 | 0.13 | 0.25 | 0.25 | 99 | 985.5 |
| 20260506120450 | 7 | 314 | 0.0 | 0.0 | 0.30 | 0.25 | 0.25 | 99 | 985.6 |
| 20260506115947 | 7 | 320 | 1.6 | 1.6 | 0.18 | 0.23 | 0.23 | 99 | 985.6 |
| 20260506115445 | 7 | 290 | 0.0 | 0.0 | 0.18 | 0.23 | 0.23 | 99 | 985.8 |
| 20260506114943 | 7 | 277 | 0.0 | 0.0 | 0.13 | 0.20 | 0.20 | 99 | 985.8 |
| 20260506114440 | 7 | 287 | 0.0 | 0.0 | 0.13 | 0.20 | 0.20 | 99 | 985.9 |
| 20260506113938 | 7 | 266 | 0.0 | 0.0 | 0.00 | 0.18 | 0.18 | 99 | 985.9 |
| 20260506113436 | 7 | 306 | 1.6 | 1.6 | 0.00 | 0.18 | 0.18 | 99 | 986.0 |
| 20260506112932 | 7 | 295 | 0.0 | 0.0 | 0.18 | 0.18 | 0.18 | 99 | 986.2 |
| 20260506112430 | 7 | 301 | 0.0 | 0.0 | 0.18 | 0.18 | 0.18 | 99 | 986.2 |
| 20260506111927 | 7 | 301 | 0.0 | 0.0 | 0.00 | 0.15 | 0.15 | 99 | 986.4 |
| 20260506111425 | 7 | 301 | 0.0 | 0.0 | 0.18 | 0.15 | 0.15 | 99 | 986.1 |
| 20260506110922 | 7 | 301 | 0.0 | 0.0 | 0.18 | 0.15 | 0.15 | 99 | 986.3 |
| 20260506110420 | 7 | 301 | 0.0 | 0.0 | 0.00 | 0.13 | 0.13 | 99 | 986.3 |
| 20260506105916 | 7 | 301 | 0.0 | 0.0 | 0.00 | 0.13 | 0.13 | 99 | 986.5 |
| 20260506105412 | 7 | 301 | 0.0 | 0.0 | 0.13 | 0.13 | 0.13 | 99 | 986.3 |
| 20260506104910 | 7 | 301 | 0.0 | 0.0 | 0.13 | 0.13 | 0.13 | 99 | 986.2 |
| 20260506104408 | 7 | 301 | 0.0 | 0.0 | 0.00 | 0.10 | 0.10 | 99 | 986.2 |
| 20260506103905 | 7 | 301 | 0.0 | 0.0 | 0.00 | 0.10 | 0.10 | 99 | 986.2 |
| 20260506103402 | 7 | 301 | 0.0 | 0.0 | 0.00 | 0.10 | 0.10 | 99 | 985.9 |
| 20260506102859 | 7 | 301 | 0.0 | 0.0 | 0.00 | 0.10 | 0.10 | 99 | 985.6 |
| 20260506102358 | 7 | 300 | 0.0 | 0.0 | 0.00 | 0.10 | 0.10 | 99 | 985.7 |
| 20260506101854 | 7 | 300 | 0.0 | 0.0 | 0.00 | 0.10 | 0.10 | 99 | 985.9 |
| 20260506101350 | 7 | 300 | 0.0 | 0.0 | 0.00 | 0.10 | 0.10 | 99 | 986.0 |
| 20260506100848 | 7 | 300 | 0.0 | 0.0 | 0.00 | 0.10 | 0.10 | 99 | 985.8 |
| 20260506100346 | 7 | 300 | 0.0 | 0.0 | 0.18 | 0.10 | 0.10 | 99 | 985.6 |
| 20260506095844 | 7 | 301 | 0.0 | 0.0 | 0.18 | 0.10 | 0.10 | 99 | 986.0 |
| 20260506095342 | 7 | 300 | 0.0 | 0.0 | 0.00 | 0.08 | 0.08 | 99 | 985.8 |
| 20260506094838 | 7 | 300 | 0.0 | 0.0 | 0.13 | 0.08 | 0.08 | 99 | 986.0 |
| 20260506094337 | 7 | 300 | 0.0 | 0.0 | 0.13 | 0.08 | 0.08 | 99 | 985.9 |
| 20260506093835 | 7 | 300 | 0.0 | 0.0 | 0.00 | 0.05 | 0.05 | 99 | 986.0 |
| 20260506093332 | 7 | 300 | 0.0 | 0.0 | 0.00 | 0.05 | 0.05 | 99 | 985.8 |
| 20260506092829 | 7 | 300 | 0.0 | 0.0 | 0.00 | 0.05 | 0.05 | 99 | 985.9 |
| 20260506092327 | 7 | 300 | 0.0 | 0.0 | 0.00 | 0.05 | 0.05 | 99 | 985.8 |
| 20260506091824 | 7 | 300 | 0.0 | 0.0 | 0.18 | 0.05 | 0.05 | 99 | 986.0 |
| 20260506091322 | 7 | 300 | 0.0 | 0.0 | 0.18 | 0.05 | 0.05 | 99 | 986.0 |
| 20260506090819 | 7 | 300 | 1.6 | 1.6 | 0.00 | 0.03 | 0.03 | 99 | 986.0 |
| 20260506090316 | 7 | 300 | 0.0 | 0.0 | 0.00 | 0.03 | 0.03 | 99 | 986.1 |
| 20260506085813 | 7 | 300 | 0.0 | 0.0 | 0.00 | 0.03 | 0.03 | 99 | 986.0 |
| 20260506085309 | 7 | 300 | 0.0 | 0.0 | 0.00 | 0.03 | 0.03 | 99 | 985.9 |
| 20260506084806 | 7 | 284 | 0.0 | 0.0 | 0.00 | 0.03 | 0.03 | 99 | 985.9 |
| 20260506084302 | 7 | 270 | 0.0 | 0.0 | 0.00 | 0.03 | 0.03 | 99 | 986.1 |
| 20260506083759 | 7 | 270 | 0.0 | 0.0 | 0.00 | 0.03 | 0.03 | 99 | 985.9 |
| 20260506083257 | 7 | 269 | 0.0 | 0.0 | 0.00 | 0.03 | 0.03 | 99 | 985.9 |
| 20260506082754 | 7 | 269 | 0.0 | 0.0 | 0.00 | 0.03 | 0.03 | 99 | 985.9 |
| 20260506082249 | 7 | 306 | 0.0 | 0.0 | 0.00 | 0.03 | 0.03 | 99 | 985.8 |
| 20260506081747 | 7 | 270 | 0.0 | 0.0 | 0.00 | 0.03 | 0.03 | 99 | 986.0 |
| 20260506081244 | 7 | 273 | 0.0 | 0.0 | 0.00 | 0.03 | 0.03 | 99 | 986.2 |
| 20260506080743 | 7 | 265 | 0.0 | 0.0 | 0.00 | 0.03 | 0.03 | 99 | 986.0 |
| 20260506080238 | 7 | 279 | 0.0 | 0.0 | 0.00 | 0.03 | 0.03 | 99 | 986.1 |
| 20260506073223 | 7 | 299 | 0.0 | 0.0 | 0.00 | 0.03 | 0.03 | 99 | 986.5 |
| 20260506072719 | 7 | 303 | 0.0 | 0.0 | 0.00 | 0.03 | 0.03 | 99 | 986.5 |
| 20260506072217 | 7 | 300 | 0.0 | 0.0 | 0.00 | 0.03 | 0.03 | 99 | 986.7 |
| 20260506071714 | 7 | 305 | 0.0 | 0.0 | 0.00 | 0.03 | 0.03 | 99 | 986.8 |
| 20260506071212 | 7 | 305 | 0.0 | 0.0 | 0.00 | 0.03 | 0.03 | 99 | 986.9 |
| 20260506070709 | 7 | 305 | 0.0 | 0.0 | 0.00 | 0.03 | 0.03 | 99 | 986.7 |
| 20260506070206 | 7 | 305 | 0.0 | 0.0 | 0.00 | 0.03 | 0.03 | 99 | 987.0 |
| 20260506062143 | 7 | 305 | 0.0 | 0.0 | 0.00 | 0.03 | 0.03 | 99 | 987.4 |
| 20260506061639 | 7 | 305 | 0.0 | 0.0 | 0.00 | 0.03 | 0.03 | 99 | 987.3 |
| 20260506061137 | 7 | 305 | 0.0 | 0.0 | 0.00 | 0.03 | 0.03 | 99 | 987.4 |
| 20260506060635 | 6 | 305 | 0.0 | 0.0 | 0.00 | 0.03 | 0.03 | 99 | 987.3 |
| 20260506060131 | 6 | 305 | 0.0 | 0.0 | 0.00 | 0.03 | 0.03 | 99 | 987.4 |
| 20260506051103 | 7 | 305 | 0.0 | 0.0 | 0.00 | 0.00 | 0.00 | 99 | 988.2 |
| 20260506050602 | 7 | 305 | 0.0 | 0.0 | 0.00 | 0.00 | 0.00 | 98 | 988.2 |
| 20260506045052 | 7 | 305 | 0.0 | 0.0 | 0.00 | 0.58 | 0.58 | 97 | 988.2 |
| 20260506044550 | 7 | 305 | 0.0 | 0.0 | 0.00 | 0.58 | 0.58 | 97 | 988.2 |
| 20260506044046 | 8 | 305 | 0.0 | 0.0 | 0.00 | 0.58 | 0.58 | 97 | 988.2 |
| 20260506043543 | 8 | 305 | 0.0 | 0.0 | 0.00 | 0.58 | 0.58 | 97 | 988.2 |
| 20260506043042 | 8 | 313 | 1.6 | 1.6 | 0.00 | 0.58 | 0.58 | 98 | 988.4 |
| 20260506042541 | 8 | 305 | 0.0 | 0.0 | 0.00 | 0.58 | 0.58 | 97 | 988.4 |
| 20260506042038 | 8 | 310 | 0.0 | 0.0 | 0.00 | 0.58 | 0.58 | 98 | 988.1 |
| 20260506041537 | 8 | 310 | 0.0 | 0.0 | 0.00 | 0.58 | 0.58 | 97 | 988.2 |
| 20260506041033 | 8 | 303 | 0.0 | 0.0 | 0.00 | 0.58 | 0.58 | 97 | 988.4 |
| 20260506040531 | 8 | 299 | 0.0 | 0.0 | 0.00 | 0.58 | 0.58 | 97 | 988.5 |
| 20260506040026 | 8 | 278 | 0.0 | 1.6 | 0.00 | 0.58 | 0.58 | 97 | 988.5 |
| 20260506035524 | 8 | 298 | 0.0 | 0.0 | 0.00 | 0.58 | 0.58 | 97 | 988.7 |
| 20260506035020 | 8 | 307 | 0.0 | 0.0 | 0.00 | 0.58 | 0.58 | 97 | 988.7 |
| 20260506034518 | 8 | 279 | 0.0 | 0.0 | 0.00 | 0.58 | 0.58 | 97 | 988.6 |
| 20260506034015 | 8 | 279 | 0.0 | 0.0 | 0.00 | 0.58 | 0.58 | 96 | 988.5 |
| 20260506033512 | 8 | 279 | 0.0 | 0.0 | 0.00 | 0.58 | 0.58 | 96 | 988.5 |
| 20260506033009 | 8 | 280 | 0.0 | 0.0 | 0.00 | 0.58 | 0.58 | 96 | 988.4 |
| 20260506032506 | 8 | 279 | 0.0 | 0.0 | 0.00 | 0.58 | 0.58 | 96 | 988.6 |
| 20260506032002 | 8 | 280 | 0.0 | 0.0 | 0.00 | 0.58 | 0.58 | 97 | 988.9 |
| 20260506031501 | 8 | 290 | 0.0 | 0.0 | 0.00 | 0.58 | 0.58 | 97 | 988.7 |
| 20260506030957 | 9 | 275 | 0.0 | 0.0 | 0.00 | 0.58 | 0.58 | 96 | 988.8 |
| 20260506030455 | 9 | 280 | 0.0 | 0.0 | 0.00 | 0.58 | 0.58 | 97 | 988.7 |
| 20260506025952 | 8 | 290 | 0.0 | 0.0 | 0.00 | 0.58 | 0.58 | 98 | 988.8 |
| 20260506025449 | 8 | 263 | 1.6 | 1.6 | 0.00 | 0.58 | 0.58 | 98 | 988.7 |
| 20260506024945 | 9 | 275 | 0.0 | 0.0 | 0.00 | 0.58 | 0.58 | 98 | 988.6 |
| 20260506024442 | 9 | 277 | 0.0 | 0.0 | 0.00 | 0.58 | 0.58 | 98 | 988.8 |
| 20260506023938 | 9 | 261 | 1.6 | 1.6 | 0.00 | 0.58 | 0.58 | 98 | 988.9 |
| 20260506023435 | 9 | 289 | 0.0 | 0.0 | 0.00 | 0.58 | 0.58 | 98 | 988.8 |
| 20260506022932 | 9 | 290 | 0.0 | 0.0 | 0.00 | 0.58 | 0.58 | 97 | 989.0 |
| 20260506022429 | 9 | 314 | 0.0 | 1.6 | 0.00 | 0.58 | 0.58 | 97 | 989.0 |
| 20260506021927 | 10 | 277 | 0.0 | 0.0 | 0.00 | 0.58 | 0.58 | 97 | 988.8 |
| 20260506021424 | 10 | 277 | 0.0 | 0.0 | 0.00 | 0.58 | 0.58 | 97 | 988.8 |
| 20260506020921 | 10 | 278 | 0.0 | 0.0 | 0.00 | 0.58 | 0.58 | 95 | 988.9 |
| 20260506020419 | 10 | 282 | 0.0 | 0.0 | 0.00 | 0.58 | 0.58 | 96 | 988.6 |
| 20260506015916 | 10 | 302 | 0.0 | 0.0 | 0.00 | 0.58 | 0.58 | 95 | 988.4 |
| 20260506015414 | 10 | 275 | 0.0 | 0.0 | 0.00 | 0.58 | 0.58 | 95 | 988.2 |
| 20260506014910 | 10 | 296 | 0.0 | 0.0 | 0.00 | 0.58 | 0.58 | 95 | 988.1 |
| 20260506014407 | 10 | 332 | 1.6 | 3.2 | 0.00 | 0.58 | 0.58 | 95 | 988.2 |
| 20260506013904 | 10 | 288 | 0.0 | 0.0 | 0.00 | 0.58 | 0.58 | 95 | 988.5 |
| 20260506013402 | 10 | 277 | 1.6 | 1.6 | 0.00 | 0.58 | 0.58 | 95 | 988.1 |
| 20260506012857 | 10 | 274 | 0.0 | 1.6 | 0.00 | 0.58 | 0.58 | 96 | 987.9 |
| 20260506012354 | 11 | 267 | 0.0 | 1.6 | 0.00 | 0.58 | 0.58 | 95 | 987.8 |
| 20260506011852 | 11 | 266 | 0.0 | 1.6 | 0.00 | 0.58 | 0.58 | 96 | 988.1 |
| 20260506011348 | 11 | 181 | 3.2 | 4.8 | 0.00 | 0.58 | 0.58 | 98 | 988.0 |
| 20260506010846 | 11 | 279 | 1.6 | 1.6 | 0.00 | 0.58 | 0.58 | 97 | 988.0 |
| 20260506010344 | 12 | 281 | 0.0 | 0.0 | 0.00 | 0.58 | 0.58 | 97 | 988.0 |
| 20260506005840 | 12 | 292 | 0.0 | 0.0 | 0.00 | 0.58 | 0.58 | 97 | 987.8 |
| 20260506005337 | 12 | 292 | 0.0 | 1.6 | 0.00 | 0.58 | 0.58 | 97 | 987.6 |
| 20260506004833 | 12 | 266 | 0.0 | 1.6 | 0.00 | 0.58 | 0.58 | 97 | 987.3 |
| 20260506004331 | 13 | 100 | 1.6 | 3.2 | 0.00 | 0.58 | 0.58 | 97 | 987.3 |
| 20260506003827 | 13 | 288 | 0.0 | 0.0 | 0.00 | 0.58 | 0.58 | 98 | 987.3 |
| 20260506003323 | 13 | 273 | 0.0 | 0.0 | 0.00 | 0.58 | 0.58 | 97 | 987.3 |
| 20260506002820 | 13 | 260 | 3.2 | 3.2 | 0.00 | 0.58 | 0.58 | 97 | 987.0 |
| 20260506002316 | 13 | 265 | 0.0 | 0.0 | 0.00 | 0.58 | 0.58 | 98 | 986.7 |
| 20260506001812 | 13 | 294 | 0.0 | 0.0 | 0.00 | 0.58 | 0.58 | 98 | 986.9 |
| 20260506001309 | 13 | 294 | 0.0 | 0.0 | 0.00 | 0.58 | 0.58 | 98 | 986.6 |
| 20260506000806 | 13 | 294 | 0.0 | 0.0 | 0.00 | 0.58 | 0.58 | 98 | 986.5 |
| 20260506000304 | 13 | 294 | 0.0 | 0.0 | 0.00 | 0.58 | 0.58 | 98 | 986.7 |
| 20260505235800 | 14 | 294 | 0.0 | 0.0 | 0.00 | 0.58 | 0.58 | 98 | 986.5 |
| 20260505235258 | 14 | 295 | 0.0 | 0.0 | 0.00 | 0.58 | 0.58 | 98 | 986.3 |
| 20260505234755 | 14 | 295 | 0.0 | 0.0 | 0.00 | 0.58 | 0.58 | 97 | 986.2 |
| 20260505234252 | 14 | 295 | 0.0 | 0.0 | 0.00 | 0.58 | 0.58 | 97 | 986.3 |
| 20260505233749 | 14 | 295 | 0.0 | 0.0 | 0.18 | 0.58 | 0.58 | 96 | 986.3 |
| 20260505233247 | 15 | 295 | 0.0 | 0.0 | 0.18 | 0.58 | 0.58 | 95 | 986.1 |
| 20260505232744 | 15 | 289 | 0.0 | 0.0 | 0.13 | 0.56 | 0.56 | 94 | 985.9 |
| 20260505232241 | 15 | 278 | 1.6 | 1.6 | 0.13 | 0.56 | 0.56 | 94 | 986.0 |
| 20260505231737 | 15 | 275 | 0.0 | 0.0 | 0.18 | 0.53 | 0.53 | 92 | 986.3 |
| 20260505231237 | 15 | 278 | 0.0 | 0.0 | 0.18 | 0.53 | 0.53 | 93 | 986.4 |
| 20260505230735 | 15 | 272 | 0.0 | 0.0 | 0.00 | 0.51 | 0.51 | 93 | 986.3 |
| 20260505230231 | 15 | 272 | 0.0 | 1.6 | 0.00 | 0.51 | 0.51 | 92 | 986.2 |
| 20260505225727 | 15 | 253 | 3.2 | 3.2 | 0.00 | 0.51 | 0.51 | 92 | 986.1 |
| 20260505225225 | 15 | 259 | 1.6 | 1.6 | 0.00 | 0.51 | 0.51 | 92 | 986.1 |
| 20260505224720 | 15 | 258 | 0.0 | 0.0 | 0.00 | 0.51 | 0.51 | 91 | 985.7 |
| 20260505224218 | 15 | 240 | 3.2 | 3.2 | 0.00 | 0.51 | 0.51 | 89 | 985.7 |
| 20260505223715 | 15 | 263 | 0.0 | 0.0 | 0.00 | 0.51 | 0.51 | 88 | 985.7 |
| 20260505223211 | 16 | 255 | 1.6 | 1.6 | 0.00 | 0.51 | 0.51 | 90 | 985.8 |
| 20260505222707 | 16 | 275 | 3.2 | 4.8 | 0.00 | 0.51 | 0.51 | 85 | 985.8 |
| 20260505222203 | 16 | 272 | 0.0 | 0.0 | 0.00 | 0.51 | 0.51 | 86 | 985.8 |
| 20260505221701 | 16 | 293 | 0.0 | 1.6 | 0.00 | 0.51 | 0.51 | 85 | 985.8 |
| 20260505221157 | 16 | 288 | 3.2 | 3.2 | 0.00 | 0.51 | 0.51 | 82 | 985.8 |
| 20260505220654 | 16 | 276 | 3.2 | 3.2 | 0.00 | 0.51 | 0.51 | 85 | 985.8 |
| 20260505220152 | 16 | 280 | 3.2 | 3.2 | 0.00 | 0.51 | 0.51 | 86 | 985.8 |
| 20260505215650 | 16 | 282 | 0.0 | 0.0 | 0.00 | 0.51 | 0.51 | 84 | 985.6 |
| 20260505215148 | 16 | 273 | 3.2 | 4.8 | 0.00 | 0.51 | 0.51 | 83 | 985.7 |
| 20260505214645 | 16 | 244 | 1.6 | 1.6 | 0.00 | 0.51 | 0.51 | 85 | 985.4 |
| 20260505214142 | 16 | 271 | 1.6 | 1.6 | 0.00 | 0.51 | 0.51 | 86 | 985.4 |
| 20260505213640 | 16 | 343 | 1.6 | 1.6 | 0.00 | 0.51 | 0.51 | 87 | 985.1 |
| 20260505213136 | 16 | 235 | 1.6 | 1.6 | 0.00 | 0.51 | 0.51 | 88 | 985.3 |
| 20260505212632 | 16 | 257 | 3.2 | 3.2 | 0.00 | 0.51 | 0.51 | 92 | 985.4 |
| 20260505212130 | 15 | 298 | 0.0 | 1.6 | 0.00 | 0.51 | 0.51 | 91 | 985.1 |
| 20260505211627 | 15 | 339 | 1.6 | 3.2 | 0.00 | 0.51 | 0.51 | 91 | 985.1 |
| 20260505211124 | 15 | 334 | 0.0 | 1.6 | 0.00 | 0.51 | 0.51 | 90 | 985.0 |
| 20260505210621 | 15 | 270 | 1.6 | 1.6 | 0.00 | 0.51 | 0.51 | 92 | 985.0 |
| 20260505210117 | 14 | 258 | 1.6 | 1.6 | 0.00 | 0.51 | 0.51 | 92 | 985.3 |
| 20260505205615 | 14 | 264 | 0.0 | 1.6 | 0.00 | 0.51 | 0.51 | 92 | 984.9 |
| 20260505205113 | 14 | 228 | 4.8 | 4.8 | 0.00 | 0.51 | 0.51 | 91 | 985.5 |
| 20260505204610 | 14 | 258 | 3.2 | 3.2 | 0.00 | 0.51 | 0.51 | 92 | 985.3 |
| 20260505204107 | 14 | 276 | 3.2 | 3.2 | 0.30 | 0.51 | 0.51 | 92 | 985.8 |
| 20260505203603 | 13 | 258 | 1.6 | 1.6 | 0.48 | 0.51 | 0.51 | 94 | 985.9 |
| 20260505203101 | 13 | 260 | 6.4 | 9.7 | 0.30 | 0.46 | 0.46 | 92 | 986.3 |
| 20260505202556 | 14 | 264 | 3.2 | 3.2 | 0.43 | 0.43 | 0.43 | 93 | 986.5 |
| 20260505202053 | 15 | 237 | 8.0 | 9.7 | 0.30 | 0.41 | 0.41 | 91 | 986.5 |